Theta_e
274 274 274 274 274 273 274 273 273 273 273 273 273 273 271 269 267 265 265 267 268 270 272 271 271 273 273 273 273 275 274 276 278 275 274 273 272 276 278 280 282 283 284 284 285 286 287 288 288 289 290 291 291 291 292 293 293 294 295 296 296 296 295 295 296 296 297 299 298 298 298 299 300 301
274 274 274 274 274 274 273 273 273 273 273 273 273 273 272 272 269 268 266 266 269 267 271 272 271 272 272 273 273 274 273 277 278 274 274 273 273 277 278 279 280 281 282 282 282 283 285 286 287 288 289 290 291 292 293 293 294 295 295 295 295 294 294 295 295 295 297 297 297 297 297 298 299 300
274 273 273 274 274 274 273 273 273 274 274 273 273 273 273 272 271 270 268 266 269 272 268 270 272 272 272 273 273 273 273 276 278 274 273 273 275 277 277 278 278 279 280 280 281 282 283 285 286 286 288 289 290 291 291 292 293 294 294 294 294 293 293 293 294 294 295 295 296 296 297 298 298 300
274 273 273 273 273 274 273 273 273 273 273 273 272 272 273 272 272 272 270 268 267 270 269 270 271 271 271 272 271 272 272 274 278 274 273 273 276 275 273 275 277 278 278 279 280 281 283 284 285 286 286 287 288 289 290 291 292 292 293 293 292 292 292 293 293 293 293 294 295 296 297 298 299 300
274 273 273 273 273 274 273 272 272 272 272 272 272 272 272 272 272 271 270 268 268 270 270 270 270 271 271 270 271 271 271 271 273 276 272 273 273 272 271 272 275 276 277 278 279 280 281 282 283 284 285 286 288 289 289 289 290 291 291 290 291 292 292 292 292 292 292 293 294 295 296 298 299 299
274 274 273 273 273 273 272 272 272 272 272 271 271 271 271 271 271 272 270 269 268 267 270 268 270 269 271 270 272 270 271 271 271 271 272 271 271 271 271 271 271 275 276 277 278 279 281 282 282 283 284 284 285 287 287 288 290 290 288 288 288 288 290 290 290 291 291 292 293 294 295 297 299 300
273 273 272 272 272 273 272 272 271 272 271 271 271 270 271 270 271 271 271 270 268 267 267 269 268 269 270 269 270 271 271 271 272 271 270 271 271 271 271 271 270 274 276 277 278 279 280 281 281 282 282 282 284 285 287 286 286 286 286 286 286 286 287 288 289 290 290 291 292 294 295 296 298 299
272 272 272 272 272 272 271 271 271 271 271 271 270 270 270 270 270 271 271 270 269 268 266 267 268 269 268 269 270 271 271 271 271 270 271 270 270 270 271 270 270 272 275 277 277 278 279 279 280 281 281 282 282 283 283 284 284 284 284 284 285 286 286 287 288 288 289 290 291 293 294 295 296 296
272 272 272 272 272 272 271 271 270 270 269 270 269 269 269 269 269 270 270 269 270 268 266 265 266 268 269 269 269 270 269 269 269 270 269 270 270 270 270 270 271 274 275 276 276 276 277 277 278 279 280 281 281 282 282 283 283 283 283 284 284 285 286 286 287 287 288 289 290 291 292 293 293 293
269 271 272 273 273 272 271 270 270 270 269 269 268 268 268 268 268 268 268 268 268 268 267 267 265 266 267 267 268 268 269 268 267 267 268 268 268 269 268 269 269 270 270 270 271 273 274 275 276 277 278 280 280 281 282 282 282 282 283 283 284 284 285 286 286 287 288 289 289 290 291 291 291 292
269 270 272 272 273 272 271 271 270 270 269 268 268 268 268 268 268 267 267 267 267 266 266 266 266 267 267 268 267 267 268 268 268 267 266 266 267 267 267 267 268 269 270 271 274 274 274 275 275 276 277 278 279 280 280 281 281 281 282 282 283 284 285 286 287 288 289 289 289 289 290 290 291 292
268 269 271 272 273 272 272 271 271 270 269 268 267 267 267 267 267 266 266 265 265 265 264 264 263 264 266 266 266 264 266 265 265 266 266 265 266 266 267 267 267 266 267 267 268 271 272 273 273 275 276 276 277 278 279 279 280 280 281 282 283 284 285 286 287 288 289 288 289 289 289 290 290 291
267 270 271 272 272 273 273 273 272 271 271 268 267 266 267 266 266 266 265 265 264 263 263 263 264 263 263 264 264 263 263 263 264 265 265 265 266 266 266 266 267 268 267 267 266 267 269 269 269 270 270 271 274 274 277 277 279 280 281 282 283 284 285 286 287 288 288 288 289 289 289 289 290 290
266 267 269 271 272 273 273 273 273 273 272 272 269 267 266 266 265 265 264 263 263 263 262 262 263 262 262 262 263 263 264 264 265 263 264 263 264 263 262 264 266 267 267 266 266 267 269 268 268 269 269 270 272 273 274 274 276 278 282 284 284 285 286 286 287 288 288 288 289 289 289 289 289 290
265 267 269 270 271 272 273 273 273 273 273 272 272 271 270 269 266 264 263 263 263 262 262 262 262 262 262 262 263 263 263 263 263 264 263 263 261 261 259 260 263 266 267 266 265 266 268 268 266 267 268 270 272 273 274 277 280 282 284 284 285 285 286 286 287 288 288 288 289 289 289 289 289 289
265 266 267 269 270 271 272 271 271 272 272 272 272 272 272 272 272 271 266 264 262 262 262 261 262 261 262 262 261 262 261 262 261 262 262 262 262 260 260 261 260 264 268 266 263 265 268 267 265 266 268 271 272 273 277 280 282 283 284 284 285 285 286 286 287 287 288 289 289 289 289 289 289 289
265 266 267 268 269 270 272 272 271 270 270 272 272 272 272 272 273 273 273 271 266 264 263 262 261 262 263 262 261 262 262 263 261 260 260 260 262 262 261 262 262 264 267 264 260 261 267 267 266 266 269 271 273 274 277 280 282 284 284 284 285 285 286 286 286 287 288 288 289 289 288 289 289 288
264 266 266 267 268 269 270 271 270 269 269 269 270 270 270 269 270 272 274 273 272 268 265 263 262 263 263 263 263 263 265 262 261 260 260 260 260 260 261 263 264 264 266 263 260 259 264 265 267 267 270 272 274 276 278 281 283 283 284 284 285 285 285 286 286 286 287 288 289 289 289 289 289 288
264 265 266 267 267 269 269 269 270 268 268 267 267 267 268 267 268 269 270 271 271 270 266 266 265 265 264 265 265 263 264 264 264 263 262 262 262 260 259 259 258 261 263 264 263 258 264 268 267 268 271 274 275 276 278 281 282 283 284 284 285 285 285 285 286 286 287 288 288 288 288 289 288 287
264 265 266 267 267 268 269 269 273 271 268 266 265 265 266 266 267 266 271 273 274 272 269 268 267 267 266 268 265 264 264 264 263 262 259 258 257 257 257 259 254 256 260 264 263 259 261 265 267 269 273 274 273 275 277 279 281 282 283 284 285 285 285 285 286 286 287 287 288 288 288 288 288 286
264 265 266 267 267 268 269 270 273 274 271 266 265 264 264 265 265 265 267 273 275 275 275 273 273 273 273 273 273 273 272 266 264 260 258 259 258 258 257 257 256 258 259 263 265 264 263 264 268 270 272 272 273 274 276 277 279 281 282 283 284 285 285 286 286 286 287 287 288 288 288 288 288 287
264 266 267 267 267 268 268 271 274 275 271 265 265 263 263 261 262 263 265 266 270 275 275 275 275 275 274 274 275 275 274 273 268 261 261 260 260 259 258 259 258 257 258 262 268 264 262 265 266 268 268 269 270 274 274 276 277 279 280 281 283 284 285 286 286 286 286 287 287 288 288 288 287 285
263 264 265 267 268 269 269 273 274 275 272 265 264 264 263 261 261 263 264 265 265 266 268 270 272 273 274 273 272 273 274 274 270 264 264 261 261 260 260 258 255 260 263 265 267 263 261 266 267 266 266 267 271 273 274 274 275 277 278 277 278 283 284 284 285 285 286 287 287 287 288 288 287 284
262 263 264 266 268 271 272 273 274 274 274 266 265 264 263 261 261 264 264 265 265 265 266 266 268 270 273 272 272 272 272 273 270 266 264 263 263 262 260 260 259 258 260 265 268 263 262 263 265 265 266 265 265 269 272 273 275 276 277 277 278 281 282 282 282 283 284 286 287 287 288 287 287 285
262 263 264 265 268 271 272 273 274 274 275 271 266 264 262 263 265 267 264 265 267 265 265 266 267 268 271 272 271 271 271 272 270 268 266 265 265 263 261 260 261 261 263 264 272 264 262 262 264 263 265 265 268 268 271 272 274 275 276 276 277 278 280 280 281 280 282 283 285 286 287 287 288 286
263 263 264 264 267 269 272 273 274 274 275 274 268 266 270 271 271 266 265 265 265 264 265 265 266 267 268 269 270 270 270 270 271 270 267 266 265 265 265 265 264 262 264 266 273 264 263 264 264 266 266 267 268 269 269 270 273 274 275 276 276 277 279 280 280 280 280 280 279 283 286 287 287 287
263 264 264 265 267 269 271 273 274 274 275 274 269 272 274 273 272 269 265 265 264 264 265 266 265 266 267 267 268 269 270 271 271 271 269 267 267 267 267 269 270 270 267 263 268 267 265 265 266 267 267 268 267 268 269 269 270 273 273 274 275 276 278 279 279 279 280 281 281 284 284 285 286 287
264 263 264 265 269 271 271 272 273 274 274 272 274 274 274 272 271 269 266 265 264 264 264 265 266 266 267 267 267 268 269 269 270 271 271 270 269 268 268 269 271 272 270 267 267 268 267 267 266 268 269 268 267 267 267 270 271 271 271 273 274 275 277 279 280 279 280 281 280 281 281 281 282 284
265 266 268 269 270 271 272 272 273 273 273 274 274 273 273 272 270 267 265 264 264 264 264 265 266 266 267 266 266 267 267 268 268 267 267 267 267 266 267 267 269 270 271 270 268 267 267 268 268 268 268 269 268 269 269 268 270 271 272 271 271 274 275 278 279 279 279 280 279 280 280 280 280 282
268 269 270 270 270 270 271 270 270 270 271 272 273 273 273 271 270 267 266 265 265 264 264 265 266 266 267 266 265 265 265 265 266 266 265 265 265 266 266 266 267 268 269 270 269 267 268 268 269 268 268 269 270 269 270 270 270 272 272 271 272 274 276 277 278 279 279 278 279 279 279 280 281 281
264 267 268 268 269 270 271 271 271 271 271 271 271 271 271 271 270 268 267 266 265 265 265 266 267 267 267 267 266 265 265 265 264 265 265 265 266 265 265 265 265 266 268 268 270 269 268 268 269 269 268 269 270 270 271 271 271 271 271 272 272 270 274 276 277 278 278 278 277 278 278 279 280 281
264 265 268 268 269 269 269 269 269 270 269 269 269 269 270 269 270 270 269 269 267 267 267 267 268 267 267 266 266 267 266 266 265 265 266 266 266 266 266 265 265 266 266 266 265 266 269 269 269 270 270 270 269 270 271 272 271 271 271 272 273 274 275 275 275 275 277 276 276 277 277 278 278 279
262 264 264 266 266 266 267 268 268 268 268 268 269 269 269 269 270 270 269 267 267 267 268 267 267 266 266 266 267 267 266 266 266 267 267 267 266 266 266 266 266 266 265 264 264 263 264 267 270 270 271 271 272 271 270 269 271 271 270 271 272 272 273 275 275 274 275 276 275 276 276 277 278 278
258 260 264 266 266 267 267 266 267 267 267 267 267 267 270 269 268 269 269 268 268 268 268 267 267 267 267 266 267 267 266 267 267 267 268 266 267 266 266 266 267 267 267 265 264 263 265 267 268 270 271 272 273 272 271 270 270 270 270 271 272 271 272 273 275 274 274 274 274 274 275 276 277 278
259 260 264 265 267 267 266 266 266 267 267 267 267 267 268 267 269 270 269 269 269 268 268 268 268 268 267 266 267 267 267 268 268 268 269 268 268 267 267 267 267 268 268 268 267 265 267 269 269 269 270 270 269 267 271 271 269 270 269 269 269 269 271 273 274 273 272 273 274 274 274 275 276 278
260 260 263 265 266 266 265 265 266 266 266 267 267 267 267 266 268 269 269 270 269 269 268 268 268 268 267 267 267 268 269 269 269 269 269 268 268 269 268 268 269 269 269 269 268 267 269 270 270 269 268 267 263 260 262 270 274 270 268 266 268 269 271 273 275 273 273 272 272 274 273 273 274 277
262 262 264 265 265 265 264 264 265 265 265 265 265 266 267 268 268 269 271 271 270 269 269 268 268 268 268 268 268 269 269 269 268 269 269 269 269 270 269 270 270 270 270 270 270 269 270 270 271 270 267 264 261 260 261 259 265 274 269 269 270 269 270 272 274 273 273 274 274 274 274 274 273 276
258 262 263 264 264 264 264 264 265 264 264 264 264 265 266 267 268 270 271 271 270 269 269 269 269 269 269 269 268 268 268 267 267 267 268 269 269 269 270 270 270 270 270 270 271 270 270 270 270 270 267 262 259 258 260 262 258 266 273 273 272 272 270 272 273 272 272 274 274 275 275 274 274 275
256 258 260 262 263 263 264 264 264 263 262 263 264 265 266 267 268 270 270 270 270 270 269 269 269 269 268 268 268 268 267 266 266 266 266 266 268 267 267 269 269 268 269 269 270 271 271 271 270 270 267 263 261 260 262 263 265 265 267 275 272 270 270 271 273 273 272 272 273 274 275 276 277 278
255 256 257 259 262 263 263 264 264 264 263 263 263 264 265 266 268 269 270 270 270 270 270 269 269 269 268 268 268 267 267 267 266 266 266 265 265 266 266 268 269 268 268 268 268 270 271 271 271 271 269 267 267 267 263 263 264 263 265 271 275 273 269 268 273 272 270 270 270 270 270 273 272 274
254 254 254 255 257 259 261 262 262 263 264 265 265 266 266 266 268 269 270 270 270 270 269 269 268 268 268 268 268 268 266 266 266 266 266 266 267 266 266 268 267 268 268 266 266 268 269 271 271 273 271 269 270 271 271 268 267 264 266 270 275 276 274 271 272 274 271 269 270 270 270 270 271 271
253 253 253 253 254 255 256 258 259 260 262 264 265 265 265 266 267 270 270 270 270 269 269 269 268 267 267 267 267 267 266 266 265 266 266 267 267 267 268 268 267 265 266 266 265 265 265 264 268 271 270 271 272 271 269 267 265 266 266 268 271 276 277 277 277 275 274 272 270 269 268 268 268 268
252 252 252 252 253 253 253 254 255 257 258 261 263 265 265 265 267 268 268 269 269 269 268 268 268 267 267 267 267 267 266 265 265 265 266 266 267 266 266 266 266 264 264 263 264 264 264 263 265 267 269 271 272 272 270 268 264 265 268 270 271 271 272 279 279 279 278 279 277 273 270 268 266 269
251 251 251 252 252 252 252 252 253 254 255 257 260 264 264 265 266 267 268 268 268 268 267 267 267 267 266 266 266 265 265 265 265 265 265 266 265 265 265 266 266 265 264 264 264 264 263 263 264 269 270 270 271 271 270 269 268 268 269 270 272 274 273 272 271 274 276 278 279 280 279 278 278 277
251 251 251 251 252 252 252 252 252 253 254 255 258 262 264 265 265 266 267 267 267 267 266 266 265 265 265 265 265 264 263 265 265 264 265 265 265 265 265 266 266 266 264 262 263 263 263 263 265 268 269 269 271 271 271 270 269 267 268 270 272 273 272 272 270 271 271 272 278 280 279 279 278 278
Wind_Speed
12 12 14 13 11 11 9 9 10 10 9 9 9 9 10 9 10 9 8 9 8 3 7 6 4 8 7 6 6 6 6 8 9 4 5 5 4 6 8 11 13 15 18 19 21 21 21 21 22 22 22 23 22 22 22 22 22 22 23 23 23 23 23 23 24 25 25 27 27 25 25 26 27 28
11 12 12 12 11 11 10 10 11 10 10 10 10 10 9 9 11 10 11 11 7 4 4 6 5 4 7 6 6 6 7 10 10 5 5 5 4 7 9 10 12 15 17 19 19 19 20 21 21 22 22 22 22 22 22 22 22 22 23 24 24 23 23 23 24 24 25 26 25 25 25 26 27 28
11 12 14 13 12 11 11 11 11 11 10 10 10 10 9 9 10 10 8 11 7 6 6 5 3 3 5 6 6 5 6 8 9 6 5 5 7 9 7 9 11 14 16 17 18 19 20 21 20 20 20 21 21 22 21 22 22 23 23 23 23 23 23 23 23 24 25 24 25 26 26 27 27 27
11 12 14 14 12 11 10 11 11 11 11 11 10 10 10 10 10 9 9 12 14 5 5 5 5 5 4 5 6 6 6 6 12 5 6 6 8 4 3 7 11 14 15 17 18 19 20 20 19 19 19 19 20 21 21 22 22 22 23 23 22 23 23 24 24 23 24 25 26 26 26 26 27 27
13 13 13 14 14 12 12 11 11 10 11 10 10 9 9 10 10 10 10 12 13 6 4 5 5 5 5 4 5 7 6 6 5 5 5 5 4 4 4 4 9 14 15 17 18 18 19 19 19 18 18 19 19 20 21 22 22 22 22 22 22 23 23 24 24 24 24 25 26 26 26 27 27 26
12 12 15 15 15 12 13 13 12 11 10 10 10 10 10 10 10 10 10 11 11 11 5 6 4 4 5 7 5 8 7 6 5 6 5 3 4 4 4 5 6 13 16 17 18 18 19 18 18 18 18 18 19 19 20 21 22 22 22 21 21 21 22 22 23 24 24 24 25 26 26 26 26 26
14 15 15 16 14 10 12 14 13 12 12 11 11 12 10 11 10 10 11 10 11 11 7 6 6 6 5 7 7 7 7 7 7 7 5 5 5 4 5 5 5 11 16 18 18 18 18 18 18 19 19 19 19 20 21 21 21 21 21 21 20 21 21 22 22 23 23 24 25 26 25 25 25 25
17 17 17 16 14 13 14 14 13 11 11 11 11 11 11 10 11 10 10 11 10 8 8 6 8 6 7 6 5 6 6 8 6 6 5 4 4 5 5 6 5 8 16 17 17 17 17 18 18 19 20 20 19 20 20 21 21 21 21 21 21 21 21 21 22 23 23 24 25 25 25 24 24 23
17 18 17 16 14 14 15 14 13 11 12 11 11 11 10 10 9 8 9 10 9 9 9 5 5 6 7 6 6 7 7 6 5 4 5 6 6 6 6 5 6 11 15 16 16 16 16 17 17 18 18 18 19 19 20 21 21 22 21 21 20 20 20 21 21 22 23 23 24 24 24 23 23 21
17 18 17 15 14 14 15 14 13 12 14 12 12 12 10 10 9 10 9 8 9 9 9 7 5 4 6 4 5 5 7 7 6 5 4 4 4 5 5 6 5 4 5 4 6 10 12 14 17 17 17 18 19 19 20 21 21 21 21 21 20 20 20 20 21 22 22 22 22 23 23 22 21 20
17 18 18 15 14 14 14 14 14 13 13 12 13 12 12 11 10 9 9 8 9 9 8 7 7 6 6 7 8 5 6 7 7 7 6 7 5 5 6 6 4 5 6 9 14 13 12 13 12 15 18 19 20 20 20 20 21 20 20 20 20 20 20 20 21 22 22 22 21 21 21 21 20 18
16 16 17 17 15 14 14 14 14 14 13 11 12 11 10 10 10 9 8 8 8 8 8 7 6 6 7 4 3 2 4 4 4 4 6 8 6 6 6 6 6 4 4 7 6 8 9 10 13 16 16 16 17 18 17 18 18 18 18 18 19 19 19 20 20 21 21 21 20 21 20 20 19 17
18 17 15 14 15 16 18 22 21 19 18 13 12 11 11 11 11 9 8 9 8 7 7 7 5 6 7 7 6 6 7 9 9 4 5 6 6 5 5 5 5 6 7 6 5 5 6 7 8 7 7 8 11 11 15 13 16 17 17 17 17 17 18 19 20 20 20 20 20 20 20 19 18 15
19 19 16 17 28 24 24 23 23 25 23 20 15 13 12 12 11 10 9 9 8 8 8 8 8 8 9 8 9 8 7 5 4 5 5 6 5 3 4 6 5 6 5 5 6 7 5 6 7 6 7 7 6 6 6 7 10 13 16 16 16 17 18 19 19 19 19 19 19 19 18 18 16 14
18 16 15 14 19 22 22 22 25 24 25 24 23 21 18 15 14 11 11 10 9 10 9 8 8 9 9 10 8 8 6 5 7 7 5 6 4 5 5 8 3 2 5 4 3 8 4 3 5 5 6 7 6 6 7 13 15 16 15 15 16 16 17 17 18 17 18 18 18 18 17 16 15 13
14 15 15 15 13 14 16 15 16 20 24 26 25 24 22 23 22 19 15 12 10 9 9 9 10 8 10 8 7 7 6 7 6 6 5 6 6 6 6 4 4 2 3 2 3 9 7 2 4 5 6 6 6 7 11 15 14 13 13 14 15 15 15 16 16 16 16 17 17 16 16 16 14 11
17 14 14 13 14 14 22 18 14 14 16 22 25 23 23 23 24 22 22 19 14 11 11 10 9 11 9 9 8 8 8 5 7 5 6 5 5 6 6 7 4 4 3 0 2 5 6 0 3 4 6 4 6 7 10 13 12 11 12 13 14 15 15 15 16 16 15 15 16 16 15 15 14 10
17 16 15 14 14 13 14 13 14 13 13 13 14 14 13 11 16 21 23 23 22 15 11 10 11 9 8 9 7 8 7 8 8 7 8 6 6 6 9 5 5 3 1 2 1 3 6 2 3 5 6 4 5 5 9 11 10 11 11 12 14 15 16 16 16 15 15 15 14 13 14 13 12 8
18 16 15 15 15 15 13 12 14 13 13 13 12 12 12 11 10 10 11 11 11 11 10 10 10 8 9 10 8 7 8 10 8 8 8 9 8 4 0 1 3 5 4 4 4 5 5 2 3 5 6 6 6 4 7 9 11 11 12 13 14 14 15 15 15 15 14 14 13 12 12 12 11 4
14 14 15 14 14 16 14 15 25 19 13 13 12 12 11 9 8 8 10 15 15 10 9 11 10 9 11 13 10 10 9 8 6 5 2 2 3 3 3 6 2 3 2 4 5 2 3 3 3 6 6 5 6 5 4 7 12 12 13 13 13 12 11 12 13 14 14 13 13 12 11 11 10 4
12 13 13 12 14 16 13 16 25 26 21 12 12 11 10 9 7 7 7 18 23 22 19 18 20 18 18 19 19 18 18 12 8 7 6 6 6 6 5 4 1 4 1 3 5 2 3 3 1 5 5 5 5 4 4 5 9 13 14 15 14 11 9 10 10 10 11 12 13 13 12 10 9 6
12 13 22 18 16 16 13 19 26 26 20 12 12 11 10 9 8 7 7 6 11 21 22 21 20 20 19 19 19 17 17 18 13 9 10 7 7 7 6 6 5 5 3 5 6 3 4 3 2 4 5 3 2 2 3 6 7 11 12 16 15 13 12 11 9 9 9 10 10 11 10 8 6 3
11 13 15 21 21 16 15 24 24 27 19 12 12 12 10 10 10 11 9 9 8 8 7 8 10 12 15 12 11 11 18 18 16 11 8 7 8 7 6 4 1 1 2 3 7 3 2 2 3 3 5 4 3 1 3 6 5 5 6 8 8 13 14 14 11 11 11 11 10 10 9 7 4 2
10 11 11 14 21 21 22 22 23 24 24 14 12 10 10 10 12 10 9 9 9 9 9 6 4 4 7 9 9 8 9 10 14 10 8 8 8 8 6 6 4 2 2 1 7 1 0 1 2 2 3 2 4 6 5 7 6 5 6 7 6 10 13 13 10 13 12 12 11 10 10 7 6 3
9 10 11 10 15 20 19 20 21 22 22 20 12 11 10 12 13 9 8 10 13 8 7 7 6 6 5 8 7 8 8 6 9 9 9 9 8 8 7 6 5 5 5 3 7 1 1 0 1 3 3 0 3 5 6 7 6 4 6 6 6 6 6 7 6 6 8 11 11 11 10 9 8 5
9 10 10 9 9 15 16 16 18 20 19 24 13 13 19 21 16 10 9 8 8 7 7 7 7 7 4 5 8 9 8 7 9 9 8 8 8 7 8 9 7 4 6 6 9 3 2 0 2 2 2 1 3 4 6 6 4 6 7 5 5 6 6 6 6 6 5 5 5 6 8 10 4 7
9 9 9 10 15 16 16 16 17 17 19 16 13 21 23 21 20 13 8 8 8 7 8 9 9 9 7 4 4 7 8 8 7 8 8 9 9 7 7 6 5 6 4 2 1 5 2 0 3 0 2 2 4 4 3 4 5 8 8 9 9 7 6 6 6 5 5 5 5 9 9 8 10 2
9 9 9 10 18 19 17 17 15 17 16 10 20 24 25 22 19 9 9 8 8 8 8 9 8 9 7 6 5 5 4 5 6 6 6 8 9 8 7 8 7 6 3 4 4 4 3 1 1 2 2 2 3 4 5 5 4 5 7 9 6 5 6 7 6 6 5 5 4 5 5 6 6 5
9 13 19 22 21 18 17 17 16 14 16 21 19 24 23 20 10 9 9 9 8 7 9 9 7 8 7 7 4 4 4 4 4 4 3 2 1 1 0 0 0 2 3 3 4 3 3 3 3 2 1 2 2 3 4 5 5 6 6 8 8 9 8 7 6 5 5 6 5 6 6 5 6 5
19 20 21 23 20 16 13 10 7 5 5 9 15 17 19 11 9 9 9 9 9 8 9 9 8 7 6 5 6 6 5 6 5 5 4 4 3 2 2 2 4 3 2 2 3 3 4 4 4 3 2 3 3 4 4 4 5 6 5 5 7 7 3 8 7 6 6 6 6 7 6 6 5 5
2 12 15 10 12 10 14 14 10 8 5 4 6 6 8 7 8 10 10 10 10 9 8 8 7 6 6 5 6 5 6 5 4 5 5 5 5 4 3 4 4 4 4 3 3 4 4 4 3 3 3 3 3 4 4 4 5 6 6 4 5 4 7 8 7 6 6 5 4 6 7 8 8 7
3 2 10 14 9 7 7 6 4 4 3 4 3 3 4 7 9 11 14 12 8 7 6 5 5 5 6 7 6 5 5 5 5 5 6 6 5 4 4 3 5 4 3 3 3 3 3 4 4 4 5 4 3 3 2 3 5 5 6 5 5 5 4 6 6 7 7 5 6 7 6 7 7 7
2 1 3 6 6 5 5 4 4 4 4 4 4 4 3 5 8 9 8 8 7 7 7 7 7 8 7 6 6 6 6 6 6 5 5 5 5 4 4 5 4 3 4 4 2 3 3 3 4 5 5 4 4 4 3 2 1 1 5 6 6 6 6 7 5 6 7 5 5 4 7 7 7 7
2 2 2 4 5 5 5 4 4 4 4 5 4 3 4 5 5 9 8 8 8 8 8 7 7 6 6 6 6 6 6 6 6 8 9 6 6 6 6 5 4 3 3 3 3 3 3 2 3 3 4 4 5 5 4 4 3 2 4 4 4 5 6 6 6 6 6 3 4 6 6 7 7 7
3 2 1 4 4 4 4 3 3 4 4 4 5 4 4 4 4 7 9 8 8 8 7 7 6 6 7 7 7 6 6 7 7 7 7 6 7 6 6 5 4 4 4 4 4 4 4 4 3 2 2 2 2 3 4 6 2 3 3 3 1 3 5 5 5 6 5 6 5 5 5 7 7 7
4 3 0 3 3 4 4 4 4 4 4 5 5 5 5 4 5 5 7 8 9 8 7 7 7 6 7 7 7 6 6 6 7 7 7 7 7 6 5 6 5 5 5 4 5 4 4 5 4 4 2 0 3 4 3 4 5 4 1 3 3 3 3 5 4 3 6 6 6 5 7 7 8 7
7 5 3 4 4 4 5 4 4 4 3 4 4 4 2 4 4 4 6 9 8 8 8 8 7 7 6 6 7 6 6 6 5 6 7 7 6 6 6 5 6 5 5 4 4 4 4 5 4 4 2 2 2 1 2 3 5 2 5 1 3 2 4 4 4 5 5 3 5 5 4 5 8 7
10 9 7 5 4 4 4 5 5 4 3 1 1 1 2 3 1 5 6 9 8 7 8 7 6 6 6 7 7 6 6 5 6 6 6 6 6 5 5 5 5 5 5 5 5 5 5 5 5 4 4 5 2 0 1 3 2 1 2 3 3 2 3 3 3 4 4 4 5 4 5 6 5 5
10 10 10 7 6 5 5 4 4 4 3 1 1 1 3 3 3 2 6 8 8 8 7 7 6 7 7 7 7 7 7 6 6 5 5 5 6 6 4 5 5 3 4 5 5 5 5 5 5 5 6 5 4 3 3 1 1 1 4 2 2 4 1 1 2 2 3 3 4 3 2 2 2 9
11 9 10 9 9 8 7 6 6 5 5 4 3 2 1 2 4 3 5 6 8 7 8 7 7 7 6 6 6 5 6 7 7 6 6 5 4 5 5 5 5 5 4 5 5 5 5 5 6 6 6 6 4 3 4 2 1 1 0 1 3 4 2 1 2 1 1 2 2 2 3 4 5 5
12 11 11 11 10 10 9 7 6 5 4 4 4 3 2 3 3 3 3 7 6 7 7 7 7 7 7 7 6 7 6 5 5 5 5 5 4 3 5 4 3 4 5 4 5 5 5 3 2 4 4 3 2 2 1 1 1 2 3 2 2 2 4 5 0 1 0 1 2 3 3 3 2 3
11 10 10 10 11 10 9 9 8 7 6 6 4 4 3 2 3 3 3 9 7 7 7 7 6 6 6 6 6 6 7 6 6 6 5 5 5 4 4 4 5 3 5 5 5 4 1 1 1 2 5 4 2 1 1 2 1 1 1 2 2 2 3 4 5 1 4 3 1 3 2 3 3 3
12 11 11 11 9 10 10 9 9 8 8 7 6 5 4 2 2 1 2 5 6 6 6 6 6 6 6 6 6 6 6 6 6 6 5 5 5 5 5 4 4 4 4 3 2 2 2 2 3 5 4 3 2 1 1 1 3 1 1 2 2 1 2 7 9 8 7 7 4 2 1 1 2 2
11 10 11 10 10 11 11 10 10 8 7 7 7 6 3 2 0 1 3 4 6 6 6 6 6 6 6 6 6 6 6 6 6 6 6 5 5 5 5 5 3 3 3 3 4 4 3 4 2 4 4 3 3 4 1 3 3 2 0 0 1 3 3 2 4 5 5 9 9 5 3 3 3 1
11 11 11 10 10 10 10 10 10 9 8 7 7 6 4 3 2 2 3 3 4 6 6 6 6 6 6 6 7 7 5 5 5 5 5 5 5 4 4 4 4 3 3 3 5 3 3 3 3 3 3 3 3 4 3 4 4 3 1 1 3 3 3 1 2 4 5 6 6 7 8 10 11 15
Wind_Direction
247 243 238 235 238 238 229 227 224 223 223 222 217 206 211 210 239 260 260 251 259 225 198 235 218 200 213 208 200 194 190 200 202 173 176 181 185 225 255 271 284 289 291 293 291 288 286 284 283 283 283 283 283 285 284 283 283 283 283 283 285 287 290 292 290 289 288 292 295 293 290 293 295 295
249 245 240 237 238 234 227 225 223 220 218 219 217 214 214 203 222 234 252 264 226 231 226 208 228 199 206 201 200 196 194 205 199 178 182 187 189 226 252 272 284 288 291 292 290 287 284 282 282 283 283 282 283 282 282 282 282 282 282 283 283 285 286 288 287 286 289 289 292 288 285 286 288 289
253 246 245 240 238 233 230 225 225 221 217 217 217 219 211 213 216 226 234 263 246 179 225 236 231 211 216 199 197 197 198 207 202 182 185 195 200 228 256 267 278 285 287 288 286 285 283 281 281 281 283 282 282 283 282 282 281 281 282 282 285 287 288 287 286 289 289 287 284 283 284 284 284 287
257 250 246 243 239 235 232 229 227 221 219 215 217 214 213 214 215 215 227 237 255 182 191 214 219 209 215 209 197 204 206 215 216 172 196 199 214 233 218 260 271 277 281 283 285 284 284 284 284 285 285 285 284 281 281 280 281 282 284 287 288 286 283 283 284 287 287 285 283 283 284 284 284 288
259 254 249 245 240 235 233 230 228 222 217 214 217 216 214 216 210 209 218 233 252 229 198 202 203 212 197 227 203 210 207 209 223 207 190 200 201 206 222 233 259 270 276 280 283 284 284 283 283 283 284 284 284 284 283 282 281 282 282 281 281 284 287 287 286 286 287 285 284 283 283 283 285 288
270 257 252 249 245 232 233 230 228 220 214 211 212 213 212 215 214 206 212 231 237 248 195 220 209 206 197 221 195 204 211 218 213 222 208 198 201 208 213 234 241 260 273 279 282 283 283 284 284 283 284 284 284 284 283 282 281 281 282 284 286 286 285 287 288 288 287 285 283 282 282 284 287 289
275 267 255 251 246 235 232 231 228 220 216 209 211 215 211 215 214 207 211 219 232 236 230 199 207 206 210 207 216 206 219 219 213 221 214 213 216 211 216 228 233 258 272 278 283 284 284 284 284 284 283 281 280 279 280 281 283 283 282 282 282 282 284 286 287 288 287 286 284 283 283 285 288 291
268 264 259 251 243 234 232 231 225 221 216 210 211 215 214 214 213 208 208 216 229 226 232 203 205 197 208 229 225 219 219 219 219 214 218 214 221 221 222 226 236 254 270 278 283 285 285 285 284 284 282 281 279 278 279 279 279 279 280 279 279 280 281 284 286 286 286 285 283 283 284 286 290 295
281 268 258 252 242 231 232 229 225 217 212 212 210 215 214 213 211 209 207 215 219 227 228 216 199 194 213 216 210 209 211 222 223 214 212 214 221 228 232 234 238 257 271 281 285 286 285 285 286 285 284 282 280 278 276 276 277 277 277 278 278 279 280 282 283 284 283 282 282 283 283 287 291 297
283 283 266 252 243 234 227 227 221 215 212 211 212 213 213 212 207 209 210 208 216 223 230 215 210 192 207 217 219 203 202 208 217 227 234 236 230 231 246 239 241 234 246 256 267 275 279 283 283 283 284 282 280 277 276 275 276 277 278 277 276 276 277 280 281 282 281 281 280 280 282 285 290 297
276 279 277 259 243 235 229 224 218 213 212 210 211 209 211 209 205 206 207 206 212 217 223 222 215 215 214 213 226 214 204 209 207 210 217 241 226 228 228 255 249 243 259 265 272 275 275 274 278 282 281 280 278 277 276 276 277 277 277 276 274 274 276 278 280 281 284 283 279 279 281 284 289 298
275 274 275 270 251 236 229 222 218 212 213 207 209 207 206 207 205 204 201 204 207 213 214 212 208 215 219 222 231 161 180 214 246 216 211 236 234 233 225 228 250 256 249 266 263 269 277 280 282 283 283 282 278 277 278 279 279 277 274 272 272 273 275 277 280 283 287 284 279 278 279 283 288 299
269 265 271 274 264 244 233 228 224 219 214 202 205 201 201 203 202 202 198 199 201 209 206 215 201 209 218 218 193 206 200 204 210 196 198 232 237 240 244 252 235 250 261 260 261 263 255 272 271 270 273 268 274 278 276 274 273 273 274 273 273 272 275 278 281 286 287 281 278 278 279 282 289 301
279 284 276 267 265 252 239 230 223 222 215 206 199 196 193 196 196 196 193 195 200 201 204 208 199 212 221 211 208 208 212 195 205 199 191 219 235 237 268 275 245 236 231 251 269 267 261 256 269 264 264 271 267 268 272 257 262 268 273 275 271 274 276 278 282 289 286 280 280 280 279 283 289 303
271 272 278 280 273 257 240 232 226 218 214 208 205 199 193 190 188 187 191 197 191 198 205 200 204 214 219 220 206 210 197 196 197 205 197 212 214 221 245 270 295 255 201 244 262 289 270 227 263 268 263 271 274 267 261 269 278 280 277 272 272 273 275 277 282 291 288 281 283 282 280 282 289 303
270 271 271 273 273 257 239 228 222 218 211 212 209 205 200 200 197 191 184 185 191 196 199 201 209 199 219 218 195 204 188 206 201 207 199 201 206 220 222 238 244 253 157 231 280 289 290 207 240 275 272 271 264 267 274 282 287 286 280 279 279 278 279 280 282 288 291 287 285 280 280 282 285 301
268 269 272 276 271 260 239 225 216 212 212 213 211 208 205 204 206 206 202 193 188 186 199 202 204 204 207 213 212 195 198 177 198 195 205 210 210 210 220 231 241 266 210 109 282 276 285 312 267 279 282 278 273 278 286 284 291 293 295 290 286 283 281 281 283 287 290 292 287 280 278 282 286 296
266 264 268 273 279 267 236 222 210 203 206 207 209 207 205 203 207 215 218 217 208 189 194 192 209 210 190 213 204 204 183 171 200 187 208 198 206 211 223 224 225 250 159 208 195 315 282 236 252 285 291 279 279 273 279 295 308 312 308 305 299 290 282 277 278 283 289 292 295 287 285 288 291 295
267 269 273 271 273 269 235 219 203 198 198 198 201 200 200 197 199 201 210 214 215 199 189 196 208 200 198 214 211 189 193 195 196 183 193 192 201 200 316 331 274 278 243 197 137 228 276 270 290 281 289 302 294 284 292 306 328 326 320 314 304 293 282 275 274 278 284 288 292 294 296 301 305 299
267 263 262 268 273 269 238 216 210 197 191 192 191 195 196 195 192 197 201 210 215 209 180 196 197 196 196 205 204 192 188 194 178 162 109 98 127 145 186 228 307 266 286 190 157 204 278 278 274 300 306 308 297 292 280 322 333 337 332 328 318 306 287 276 273 275 279 282 287 289 291 296 308 267
262 260 258 263 269 265 237 212 212 207 192 184 187 188 189 190 187 199 207 219 220 220 214 197 203 206 210 215 214 209 198 184 165 135 136 180 169 157 201 247 297 262 255 229 200 173 279 275 286 311 309 299 282 287 301 324 329 336 339 338 337 330 309 292 290 294 289 289 290 292 290 288 309 285
259 257 262 268 274 262 228 214 212 209 194 180 182 181 180 181 187 204 203 212 227 227 227 226 213 209 212 217 218 213 201 191 164 152 185 189 155 190 184 210 212 270 274 240 178 140 232 278 314 326 298 303 243 268 298 328 328 336 337 335 335 340 340 331 319 308 305 299 295 294 291 282 295 274
260 267 270 271 274 259 216 217 213 210 191 170 176 179 174 182 190 206 193 198 201 221 234 232 227 212 212 210 209 213 206 190 170 178 177 144 174 184 198 187 149 327 281 213 174 143 266 28 346 24 355 356 295 253 327 326 315 317 328 327 321 339 347 340 329 321 313 308 303 304 303 274 263 191
246 257 262 267 275 261 220 220 215 214 194 167 175 170 171 178 202 201 187 191 193 204 213 226 236 255 206 195 193 193 205 197 164 181 166 170 176 184 181 183 176 174 227 214 171 151 272 78 16 21 57 331 315 316 329 326 325 314 327 325 324 335 341 340 331 320 317 315 312 311 316 287 227 191
247 255 258 260 266 266 237 220 222 220 202 169 170 172 173 190 202 165 174 190 194 195 203 214 224 237 238 197 175 183 188 193 164 172 174 177 181 174 167 171 196 234 242 231 172 85 235 144 16 10 15 272 266 303 303 305 297 309 333 319 316 328 330 328 318 316 319 323 319 316 320 322 248 198
234 245 253 265 262 263 261 237 223 219 217 178 169 181 192 198 186 165 176 178 181 184 191 200 214 216 224 193 177 183 186 186 164 169 174 188 186 189 181 175 182 202 250 247 223 171 135 5 142 51 300 314 270 293 301 311 304 328 328 322 332 322 326 321 329 322 323 319 315 313 321 336 317 219
228 234 245 252 259 261 261 259 239 224 222 198 176 190 201 197 190 172 161 166 176 181 190 198 203 207 203 194 171 174 178 184 163 172 172 183 192 197 198 209 205 221 215 221 163 149 141 179 167 150 266 291 295 303 299 314 320 331 334 343 335 323 326 328 334 319 320 331 323 342 341 341 10 278
212 224 234 241 247 249 253 253 249 236 224 211 181 198 200 194 192 164 158 164 174 180 190 203 196 199 196 184 183 171 153 148 147 150 164 180 191 194 200 210 217 224 182 153 149 153 138 168 209 207 216 274 297 319 324 309 295 307 323 321 309 312 336 339 338 345 349 346 346 358 359 3 347 358
202 218 229 235 238 242 245 248 247 243 237 230 205 196 194 187 182 153 158 163 167 179 191 205 199 194 193 187 165 132 137 131 117 109 95 73 79 97 120 213 241 232 211 187 169 162 163 181 238 257 236 232 252 292 294 294 313 316 337 335 337 334 329 339 346 352 357 6 5 14 13 348 357 359
206 218 228 231 235 237 240 245 244 244 243 251 231 205 192 182 166 147 161 158 171 185 193 199 197 190 177 158 147 147 143 150 172 156 154 143 128 135 202 242 257 243 230 200 174 171 180 193 220 217 208 248 247 270 276 300 307 310 325 328 307 296 325 351 347 0 6 358 8 23 10 2 3 0
221 224 227 233 236 227 229 232 237 238 223 220 230 217 191 169 158 158 161 171 178 186 187 189 187 176 159 133 137 155 164 167 160 170 167 177 192 157 167 199 240 240 220 197 196 181 186 199 205 197 215 229 239 246 277 281 297 315 316 328 341 351 322 335 349 356 0 354 354 22 18 16 16 6
262 262 221 229 230 226 216 229 219 213 180 184 176 166 167 153 161 167 175 176 173 174 180 166 153 143 151 164 171 161 161 177 167 164 172 182 181 168 160 180 223 228 229 227 246 262 226 193 194 220 228 232 252 278 292 305 311 307 313 330 328 317 334 346 341 347 344 336 25 23 17 14 11 3
312 358 184 183 203 193 194 185 194 181 161 149 143 142 144 159 159 171 166 168 172 170 163 168 168 168 166 161 155 170 175 178 168 158 166 177 171 159 181 199 188 182 210 227 229 225 204 210 216 217 229 238 246 265 278 283 228 346 337 322 331 334 350 349 350 343 329 8 26 24 30 18 14 4
47 349 135 168 169 179 174 185 182 180 152 145 147 159 169 177 159 165 168 171 169 167 175 174 165 160 157 157 171 166 169 163 164 172 179 164 165 164 182 190 188 172 186 189 201 163 145 174 188 213 232 248 240 228 220 244 254 318 307 312 322 330 333 344 351 351 350 2 344 32 36 23 15 7
33 19 152 158 169 168 166 137 142 145 151 151 157 176 176 182 180 175 169 171 165 168 170 164 164 158 162 170 172 168 168 168 160 160 175 161 168 175 176 180 173 180 177 163 179 171 157 138 144 162 233 241 312 301 236 201 205 236 272 288 322 330 329 341 342 354 1 7 0 37 39 36 23 9
7 2 110 130 134 130 127 108 106 110 140 163 160 160 163 175 180 181 172 164 161 166 165 161 161 163 167 171 169 171 166 163 156 158 160 164 173 170 173 183 179 179 173 171 174 169 153 139 166 171 187 159 11 8 341 225 211 182 221 296 320 335 327 336 355 2 22 16 8 19 42 10 349 14
6 357 44 97 98 115 119 110 100 89 85 92 101 101 136 167 175 183 168 156 164 165 167 165 167 166 164 160 160 159 160 153 148 152 156 168 175 169 170 181 178 170 172 164 162 164 156 156 175 163 144 63 66 41 269 309 312 237 156 308 304 7 348 346 11 24 4 14 30 18 11 15 345 357
358 358 9 34 71 88 97 103 102 89 75 58 29 65 71 15 206 182 170 161 167 166 163 164 162 162 159 156 153 154 152 145 138 143 150 154 158 171 173 166 166 173 174 164 165 167 171 160 164 163 149 153 140 192 18 324 7 345 269 221 283 307 30 360 37 8 10 17 19 9 21 26 10 340
1 354 1 3 13 29 60 66 81 82 63 32 353 20 15 0 345 206 168 168 163 162 162 158 162 163 159 157 153 149 148 144 145 149 144 152 154 157 161 157 163 167 143 149 161 157 162 164 168 175 168 155 169 207 177 120 64 180 335 305 227 285 24 343 33 50 1 13 353 360 6 333 354 10
355 357 360 355 7 15 25 34 42 39 26 355 331 342 348 313 315 248 163 155 157 160 160 162 161 157 151 151 147 142 142 148 149 150 152 153 153 149 149 151 150 147 131 129 139 150 162 167 173 183 197 187 202 190 167 166 184 149 58 30 207 226 181 114 48 78 359 342 340 24 21 4 34 348
358 359 359 352 356 359 3 10 11 8 8 349 349 330 296 272 278 283 160 148 157 154 154 149 155 158 155 150 150 149 141 129 131 136 140 142 139 136 139 131 121 143 132 134 137 149 170 138 85 134 136 119 166 138 81 51 18 334 347 339 33 209 188 197 188 331 199 297 44 69 49 40 11 18
357 358 356 360 358 355 352 351 359 356 346 335 331 351 323 285 292 290 200 159 152 143 144 150 152 148 147 149 144 141 141 144 140 140 139 135 132 134 146 141 147 152 138 149 168 169 200 343 295 118 124 125 124 107 150 155 170 291 303 309 321 91 155 230 261 257 137 185 61 31 13 356 14 33
4 1 3 358 355 356 356 353 349 348 337 332 331 341 2 4 341 339 92 137 136 138 143 145 145 144 144 143 143 140 135 136 140 137 138 135 133 135 140 143 147 153 143 135 116 107 54 55 109 123 135 131 132 182 225 149 150 228 359 38 44 34 27 80 96 92 71 51 65 160 166 163 123 44
1 1 1 360 0 1 358 356 351 340 329 324 318 323 6 354 349 93 129 134 140 140 139 138 140 139 142 136 131 125 126 136 136 138 139 141 137 133 128 130 131 121 112 112 101 76 61 72 77 128 133 157 146 174 165 107 110 104 45 344 15 87 83 30 12 32 30 24 30 60 81 84 60 102
355 359 359 359 2 2 360 354 353 339 332 328 321 318 336 6 35 60 88 104 117 126 132 134 132 131 131 136 135 130 131 127 124 122 122 127 134 141 137 137 133 129 129 144 125 92 51 74 53 66 98 137 178 188 182 146 139 150 265 82 119 107 82 44 44 51 35 10 12 67 74 90 98 95